Location: Unspecified
(47.6577°N, 23.5639°E)
Time: 18:19:34
(UTC+02:00)

ISS - Pass Details

Date: 03 February 2017
Orbit: 399 x 408 km, 51.6° (Epoch: 24 February)

Event Time Altitude Azimuth Distance (km) Brightness Sun altitude
Rises 18:22:04 0° 246° (WSW) 2,320 2.6 -9.1°
Reaches altitude 10° 18:24:08 10° 247° (WSW) 1,461 1.1 -9.4°
Maximum altitude 18:27:25 86° 334° (NNW) 410 -3.3 -10.0°
Enters shadow 18:29:58 16° 65° (ENE) 1,166 -1.6 -10.4°
